Regional Weather Roundup
Issued by NWS Pendleton, OR

Home | Current Version | Previous Version | Text Only | Print | Product List | Glossary On
Versions: 1 2 3 4 5 6 7 8 9 10 11 12 13 14 15 16 17 18 19 20 21 22 23 24 25 26 27 28 29 30 31 32 33 34 35 36 37 38 39 40 41 42 43 44 45 46 47 48 49 50
000
ASUS46 KPDT 260404
RWRPDT
PENDLETON REGIONAL WEATHER ROUNDUP
NATIONAL WEATHER SERVICE PENDLETON OREGON
900 PM PDT SAT OCT 25 2014

NOTE: FAIR INDICATES FEW OR NO CLOUDS BELOW 12,000 FEET WITH NO
SIGNIFICANT WEATHER AND/OR OBSTRUCTIONS TO VISIBILITY.

# INDICATES UNOFFICIAL STATION AND DATA

WAZ520-260510-
EAST SLOPES OF WASHINGTON CASCADES

CITY            SKY/WX      TMP DP  RH  WIND    PRES   REMARKS
#BULLFROG       N/A         49  48  96  W2      N/A
#BULLFROG 2SW   N/A         63  43  48  CALM    29.51F
#BUMPING DAM    N/A         45  N/A N/A S2      N/A
#CLE ELUM HS    N/A         49  47  93  CALM    29.49R
#CLE ELUM 2NW   N/A         48  47  96  SW1     N/A
#CLE ELUM LAKE  N/A         46  45  96  W1      29.47R
#CLIFFDEL 2NW   N/A         46  46  100 E2      N/A
#EASTON DOT     N/A         47  43  86  NE1     N/A
#ELK HTS DOT    N/A         49  49  100 E5      N/A
#GLENWOOD       N/A         48  44  86  S6      29.66R
#MANASTASH CYN  N/A         47  44  89  CALM    29.50R
#NELSON         N/A         48  47  96  CALM    29.49R
#NELSON 3SW     N/A         45  44  96  CALM    29.68R
#NILE           N/A         47  45  93  CALM    28.74R
#PEOH POINT     N/A         43  43  100 S6      N/A
#RONALD 2NW     N/A         48  45  89  NW5     29.41R
#SNOWDEN        N/A         46  42  86  NW2     N/A
#TEANAWAY 4NE   N/A         50  49  96  CALM    N/A
#TROUT LAKE 1NE N/A         48  44  86  W7      29.67R
$$

WAZ521-260510-
SIMCOE HIGHLANDS

CITY            SKY/WX      TMP DP  RH  WIND    PRES   REMARKS
#BICKLETON HS   N/A         46  40  79  W21G43  29.67R WCI 38
#SATUS PASS DOT N/A         45  40  82  CALM    N/A
#CENTERVILLE 4W N/A         50  44  80  W23     29.51R
#CENTERVILLE 1SWN/A         50  43  77  W25     29.67R
#GOLDENDALE     N/A         50  47  89  W15     N/A
#GOLDENDALE 1NE N/A         51  48  89  SW10    N/A
#GOLDENDALE 1S  N/A         50  45  83  SW23G36 29.62R
#GOLDENDALE 5WNWN/A         50  45  83  SW21G31 29.65R
#GOODNOE HILLS  N/A         54  44  69  NW48    29.60R
#LYLE 6NE       N/A         50  45  83  SW20G36 29.69R
$$

WAZ026-260510-
KITTITAS VALLEY

CITY            SKY/WX      TMP DP  RH  WIND    PRES   REMARKS
ELLENSBURG AP   CLOUDY      55  46  72  S17     29.46R
#ELLENSBURG CWU N/A         53  47  80  S9      29.41R
#ELLENSBURG 3NE N/A         53  48  83  SW7     29.49R
#ELLENSBURG     N/A         55  51  86  S7      N/A
#KITTITAS 3S    N/A         54  48  80  S13     29.43R
#MANASTASH RDG  N/A         51  51  100 S21G31  N/A
#ROCKY CYN DOT  N/A         51  49  93  E7      N/A
#RYEGRASS DOT   N/A         52  42  69  S24G37  N/A
#THORP 6N       N/A         49  47  93  E5      29.48R
$$

WAZ027-260510-
YAKIMA VALLEY

CITY            SKY/WX      TMP DP  RH  WIND    PRES   REMARKS
YAKIMA AIRPORT  MOCLDY      57  46  67  S22G36  29.51R
#COWICHE 1N     N/A         50  46  86  SW3     29.68R
#DONALD 2NE     N/A         57  43  59  NE6     29.86R
#GRANDVIEW      N/A         59  44  57  SW7     29.61R
#MABTON         N/A         61  48  62  S8G29   29.58R
#MOXEE 2E       N/A         56  37  49  S20     29.49R
#NACHES 2SW     N/A         50  49  96  CALM    29.46S
#PARKER DOT     N/A         57  47  69  N8      N/A
#SELAH 8E       N/A         54  46  74  S23G36  N/A
#TERRACE HTS    N/A         55  46  72  S8      29.48R
#TOPPENISH      N/A         60  46  60  SW15G26 29.44R
#I82 S UMTANUM RN/A         54  43  66  S17G30  N/A
#UNION GAP DOT  N/A         56  48  74  S7      N/A
#WAPATO 4NE     N/A         57  43  59  NE6     29.86R
#WEST VALLEY    N/A         55  49  80  S8      29.42F
#W YAKIMA       N/A         55  47  74  W2      29.51R
#WHITE SWAN 5E  N/A         57  46  67  SW22G35 29.52R
#WILEY CITY 3W  N/A         55  41  59  SW9     29.96S
#ZILLAH DOT     N/A         59  46  62  S13     N/A
$$

WAZ028-260510-
LOWER COLUMBIA BASIN...WASHINGTON

CITY            SKY/WX      TMP DP  RH  WIND    PRES   REMARKS
PASCO           CLOUDY      63  46  54  SW18G31 29.59R
PROSSER AWOS    N/A         61  46  58  S28     29.60R
RICHLAND AWOS   PTCLDY      64  45  50  SW36G43 29.53R
#BASIN CITY 5SW N/A         58  50  75  S7      29.53R
#BENTON CITY    N/A         60  49  67  SW16G31 29.46R
#CONNELL 5N     N/A         53  48  83  S3      29.55R
#CONNELL 5NW    N/A         53  49  86  S9      29.51R
#ELTOPIA 6NW    N/A         54  50  86  S12     28.52S
#KENNEWICK      N/A         63  43  48  CALM    29.51F
#KENNEWICK 3S   N/A         60  48  64  S13G26  29.54R
#PASCO-BROADMOORN/A         64  47  54  S14     29.43R
#PATERSON       N/A         60  49  67  W7      29.61R
#PROSSER DOT    N/A         59  48  67  S9      N/A
#PROSSER        N/A         59  45  60  SW22G33 29.57R
#SAGEMOOR 2W    N/A         53  50  89  SE1     29.41R
#TOUCHET 2S     N/A         65  48  54  SW16G31 29.54R
#WEST PASCO     N/A         62  50  65  S7      29.51R
$$

WAZ029-260510-
FOOTHILLS OF THE BLUES...WASHINGTON

CITY            SKY/WX      TMP DP  RH  WIND    PRES   REMARKS
WALLA WALLA AP  CLOUDY      64  44  48  S18     29.63R
#LOWDEN 2SE     N/A         65  48  54  SW6     29.57R
#PLEASANT VIEW 1N/A         57  48  72  S22G32  29.60R
#PRESCOTT       N/A         62  50  65  S5      29.59R
#SUDBURY        N/A         63  N/A N/A CALM    N/A
#WHITMAN COLLEGEN/A         64  46  52  E10     29.67R
#WAITSBURG 8N   N/A         59  33  37  S23     29.56R
#WALLA WALLA 5E N/A         64  43  46  CALM    N/A
#WALLA WALLA U  N/A         66  47  50  S2      29.61R
#WHITMAN MISSIONN/A         65  48  54  S2      29.63R
$$

WAZ030-260510-
BLUE MOUNTAINS...WASHINGTON

CITY            SKY/WX      TMP DP  RH  WIND    PRES   REMARKS
$$

ORZ009-041-WAZ024-260510-
COLUMBIA RIVER GORGE

CITY            SKY/WX      TMP DP  RH  WIND    PRES   REMARKS
HOOD RIVER AP   CLOUDY      55  45  69  NW10    29.71R
THE DALLES AP   CLOUDY      57  44  62  SW16    29.74R
#ARLINGTON AIRPON/A         56  45  66  W30     29.99R
#ARLINGTON HS   N/A         59  45  60  W26     29.56R
#CELILO DOT     N/A         58  40  51  SW6     N/A
#LYLE           N/A         58  49  72  W14G35  29.70R
#MARYHILL       N/A         56  43  62  NW15G29 N/A
#MARYHILL 2W    N/A         55  46  72  SE9G29  N/A
#MOSIER 1S      N/A         52  40  63  CALM    N/A
#MURDOCK        N/A         59  51  75  NW13    29.75R
#RUFUS DOT      N/A         59  43  55  CALM    N/A

$$

ORZ510-260510-
NORTH CENTRAL OREGON

CITY            SKY/WX      TMP DP  RH  WIND    PRES   REMARKS
#CHENOWITH 1W   N/A         50  43  77  W26     N/A
#COW CYN RST AREN/A         48  36  63  SW21G30 N/A    WCI 41
#DUFUR 9E       N/A         49  42  77  W22G32  29.77R WCI 42
#GRASS VALLEY   N/A         49  39  68  SW6G26  N/A
#GRASS VALLEY 1SN/A         50  39  66  W22G33  29.75R
#KENT DOT       N/A         48  32  54  SW22    N/A    WCI 41
#MAUPIN SCHOOL  N/A         56  41  57  SW3     28.64R
#MORO SCHOOL    N/A         50  47  89  SW12    29.72R
#SHANIKO 5WSW   N/A         45  32  60  SW15    N/A    WCI 38
#SHANIKO 4NW    N/A         46  37  71  W16G32  29.76R WCI 39
#TYGH VALLEY 2NEN/A         55  42  61  SW10    29.73R
#WAPANITIA AIRPON/A         52  41  66  W12     29.75R
#WASCO DOT      N/A         53  40  61  W18G29  N/A
#WASCO 5NE      N/A         52  44  74  SW20G35 29.66R
$$

ORZ511-260510-
CENTRAL OREGON

CITY            SKY/WX      TMP DP  RH  WIND    PRES   REMARKS
BEND AIRPORT    MOCLDY      46  36  68  SW15    29.86R WCI 40
MADRAS AIRPORT  MOCLDY      52  37  56  SW22G31 29.79R
PRINEVILLE AP   MOCLDY      50  37  61  SW9     29.85R
REDMOND AIRPORT CLOUDY      49  34  56  W8      29.84R
#BEND 6E        N/A         46  34  63  CALM    29.80R
#BEND 1SW       N/A         42  38  86  W3      N/A
#BEND-KIM LN    N/A         45  39  79  SW3     29.80R
#CULVER         N/A         50  39  66  SW12    29.78R
#LAKE BILLY CHINN/A         50  27  41  SW8     29.90R
#POWELL BUTTE 3EN/A         50  41  71  SW7     N/A
#POWELL BUTTE   N/A         48  38  68  S5      29.49R
#PRINEVILLE 3N  N/A         51  38  61  S3      29.76R
#WARM SPRINGS   N/A         55  41  59  SE5     29.75R


ORZ509-260510-
EAST SLOPES OF OREGON CASCADES

CITY            SKY/WX      TMP DP  RH  WIND    PRES   REMARKS
#LA PINE DOT    N/A         41  36  82  SW9     N/A
#LA PINE 4NW    N/A         39  35  85  CALM    29.86R
#LAVA BUTTE DOT N/A         39  36  89  S3      N/A
#MT BACHELOR-MIDN/A         30  29  96  SW28G48 N/A    WCI 15
#SISTERS AIRPOR N/A         46  42  86  N13G24  29.91S WCI 40
#SISTERS ODOT   N/A         46  N/A N/A SE5     N/A
#SISTERS 3N     N/A         45  36  70  CALM    29.86R
#SUNRIVER       N/A         41  38  89  SW3     29.72R
#SUNRIVER AP    N/A         40  36  85  W3      29.78R
#SUTTLE LK DOT  N/A         37  37  100 SW25G60 N/A    WCI 25
#TUMALO 3W      N/A         46  36  68  E2      29.68R
#WANOGA BUTTE D N/A         33  32  96  W13G25  N/A    WCI 24

$$

ORZ044-260510-
LOWER COLUMBIA BASIN...OREGON

CITY            SKY/WX      TMP DP  RH  WIND    PRES   REMARKS
HERMISTON       MOCLDY      63  43  48  SW17G28 29.64R
#BOARDMAN 3W    N/A         60  44  55  SE6     29.35R
#BOARDMAN 8SW   N/A         59  49  69  SW23    29.67R
#ECHO 8SW       N/A         62  42  48  SW21    29.59R
#IONE SCHOOL    N/A         60  43  53  SW9     29.66R
#IRRIGON 4NW    N/A         65  47  52  S20G30  N/A
#UMATILLA SCHOOLN/A         63  50  62  SW3     29.65R
#UMATILLA       N/A         66  43  43  SW13    29.60R
$$

ORZ507-260510-
NORTHERN FOOTHILLS OF THE BLUES

CITY            SKY/WX      TMP DP  RH  WIND    PRES   REMARKS
PENDLETON AIRPT CLOUDY      60  43  53  SW17    29.66R
#ADAMS 3WNW     N/A         59  44  57  SW20G26 29.60R
#ATHENA         N/A         61  43  51  S6      29.63R
#CAYUSE         N/A         63  41  44  SW30G44 29.60R
#HELIX SCHOOL   N/A         59  45  60  S21G31  29.59R
#HELIX 3N       N/A         57  44  62  SW32    29.60R
#HOLDMAN 5SE    N/A         62  44  52  SW17G31 29.66R
#HOLDMAN 6E     N/A         60  43  53  VRB22G3529.44R
#M-F FERNDALE   N/A         64  43  46  CALM    29.62R
#M-F GROVE ELEM N/A         64  40  41  S7G24   29.59R
#M-FREEWATER 5SEN/A         63  43  48  SW3     29.64R
#PENDLETON DNTN N/A         63  38  39  SW10    28.46R
#PDT AQUATIC CTRN/A         63  42  46  S10     29.64R
#PDT SUNRIDGE   N/A         61  45  56  S10     29.65R
#PENDLETON 7NW  N/A         61  45  56  SW5     31.13S
#PILOT ROCK     N/A         60  40  47  SE15G24 29.68R
#TUTUILLA       N/A         59  43  55  S14     29.65R
#UMAPINE 2E     N/A         65  45  48  S5      29.58R
#WESTON SCHOOL  N/A         61  38  42  SW17G29 29.61R

$$

ORZ508-260510-
SOUTHERN FOOTHILLS OF THE BLUES

CITY            SKY/WX      TMP DP  RH  WIND    PRES   REMARKS
LEXINGTON       MOCLDY      61  39  44  S21G40  29.71R
#AJAX           N/A         53  33  46  S25G53  29.66R
#CONDON SCHOOL  N/A         51  41  68  CALM    29.71R
#CONDON 5W      N/A         49  37  63  SW25G38 29.71R WCI 41
#HEPPNER EOC    N/A         57  40  53  SW13G24 29.64R
#HEPPNER 4NE    N/A         54  39  57  SW13G26 29.67R
#LEXINGTON 2SE  N/A         61  39  44  W15G26  29.68R
#MIKKALO        N/A         57  39  51  W25G43  29.67R
#OLEX 4N        N/A         56  44  64  W30G47  29.70R
#RUGGS 5NE      N/A         53  38  57  S13     29.88R
#RUGGS 2SW      N/A         55  39  55  W15     29.72R

$$

ORZ502-503-260510-
BLUE MOUNTAINS

CITY            SKY/WX      TMP DP  RH  WIND    PRES   REMARKS
MEACHAM         CLOUDY      51  39  63  VRB5    29.72R
#BATTLE MTN DOT N/A         44  45  100 S7      N/A
#HARDMAN 10S    N/A         46  38  73  S9      29.82R
#HEPPNER 15SE   N/A         46  39  76  SE3     29.65R
#LADD CYN SMT   N/A         52  32  46  SE7     N/A
#LADD CREEK ODOTN/A         47  44  89  SW8     N/A
#N POWDER DOT   N/A         56  35  45  W20G30  N/A
#PIKES PEAK     N/A         56  39  53  SW28G43 27.99S
#TROY SCHOOL    N/A         56  48  74  W5      29.51R
#UKIAH          N/A         51  40  66  SW10    29.73R
#WESTON 4E      N/A         54  40  59  SE10G24 29.52R
$$

ORZ505-260510-
JOHN DAY BASIN

CITY            SKY/WX      TMP DP  RH  WIND    PRES   REMARKS
JOHN DAY        PTCLDY      51  39  63  SW21G29 29.81S
#JOHN DAY KJDY  N/A         53  42  66  S12     29.90F
#MT. VERNON 5SE N/A         47  39  74  SW2     29.79R
#WINLOCK        N/A         51  38  61  N20     29.87R
$$

ORZ506-260510-
OCHOCO AND JOHN DAY HIGHLANDS

CITY            SKY/WX      TMP DP  RH  WIND    PRES   REMARKS
#BUCK CREEK DOT N/A         46  44  93  SW12    N/A    WCI 40
#HORSE RIDGE DO N/A         43  36  76  SW9     N/A
#KEYES SMT DOT  N/A         45  37  73  W7      N/A
#PAULINA SCHOOL N/A         47  38  71  S8      29.84R
#PINE MTN OBS   N/A         35  33  92  SE7     N/A
#PRAIRIE CITY   N/A         47  39  74  CALM    29.86R
#SENECA         N/A         44  N/A N/A S5      N/A
#SENECA 9NW     N/A         40  38  92  CALM    29.80R
$$

ORZ049-260510-
GRANDE RONDE VALLEY

CITY            SKY/WX      TMP DP  RH  WIND    PRES   REMARKS
LA GRANDE       CLOUDY      54  39  57  S8      29.71
#COVE           N/A         54  42  64  E7      29.66F
#COVE SCHOOL    N/A         54  42  64  E6      29.73F
#COVE 6NW       N/A         52  40  63  S3      29.73F
#ELGIN 3N       N/A         53  41  64  S12     29.47R
#ELGIN 1E       N/A         52  43  71  CALM    N/A
#IMBLER SCHOOL  N/A         63  35  35  SW3     29.84S
#LADD CYN DOT   N/A         53  39  59  S14     N/A
#UNION 1S       N/A         56  40  55  S12G25  29.59F
$$

ORZ050-260510-
WALLOWA COUNTY

CITY            SKY/WX      TMP DP  RH  WIND    PRES   REMARKS
#ENTERPRISE AP  N/A         54  37  52  NW15G29 29.68R
#ENTERPRISE HS  N/A         56  40  55  W7      29.75R
#IMNAHA 10S     N/A         63  36  36  SW3     29.69R
#JOSEPH 3N      N/A         58  31  36  SW24G40 29.73R
#JOSEPH 3W      N/A         46  41  83  SW2     29.63R
#LOSTINE        N/A         53  40  61  SW10G24 29.47R
#MT HOWARD 8000 N/A         37  29  72  S29G47  29.75R WCI 25
#PROMISE 1S     N/A         48  41  77  NE6     29.79R
#SHEEP RDG 7000 N/A         36  33  89  CALM    29.50R
#WALLOWA SCHOOL N/A         51  43  74  W2      30.59R



$$



USA.gov is the U.S. government's official web portal to all federal, state and local government web resources and services.